Regional Weather Roundup
Issued by NWS

Home | Current Version | Previous Version | Graphics & Text | Print | Product List | Glossary On
Versions: 1 2 3 4 5 6 7 8 9 10 11 12 13 14 15 16 17 18 19 20 21 22 23 24 25 26 27 28 29 30 31 32 33 34 35 36 37 38 39 40 41 42 43 44 45 46 47 48 49 50
109
ASUS43 KTOP 030959
RWRKS

WEATHER ROUNDUP FOR KANSAS
NATIONAL WEATHER SERVICE GOODLAND KS
500 AM CDT TUE MAY 03 2016

NOTE:  "FAIR" INDICATES FEW OR NO CLOUDS BELOW 12,000 FEET WITH NO
SIGNIFICANT WEATHER AND/OR OBSTRUCTIONS TO VISIBILITY.

KSZ001>006-013>018-027>032-041>047-031100-
NORTHWEST KANSAS

CITY           SKY/WX    TMP DP  RH WIND       PRES   REMARKS
GOODLAND       MOCLDY    44  39  82 W5        30.04R
HAYS           CLOUDY    45  34  65 CALM      30.03R
HILL CITY      LGT RAIN  52  40  63 NW10      30.03S
RUSSELL        CLOUDY    46  41  82 S10       30.01S
$$

KSZ061>065-074>080-084>089-031100-
SOUTHWEST KANSAS

CITY           SKY/WX    TMP DP  RH WIND       PRES   REMARKS
DODGE CITY     CLOUDY    47  35  63 SW10      30.05S
ELKHART          N/A     47  36  66 SW9         N/A
GARDEN CITY    MOCLDY    43  36  76 W8        30.04R
GREAT BEND     MOCLDY    43  36  75 SW6       30.04R
LIBERAL        CLOUDY    46  37  71 SW7       30.07S
$$

KSZ066>073-081>083-090>101-031100-
SOUTHEAST KANSAS

CITY           SKY/WX    TMP DP  RH WIND       PRES   REMARKS
CHANUTE        FOG       40  38  93 CALM      30.08R VSB 1/4
COFFEYVILLE    MOCLDY    40  39  97 CALM      30.09R FOG
HUTCHINSON     CLEAR     40  38  93 E5        30.05S
MEDICINE LODGE   N/A     39  37  92 CALM      30.05S
NEWTON         CLEAR     45  36  70 SW5       30.08S
PARSONS        PTCLDY    40  39  97 CALM      30.09S
WICHITA INTL   PTCLDY    46  41  82 CALM      30.06S
WICHITA JABRA  CLEAR     40  39  97 S3        30.06S
WICHITA MCCONL PTCLDY    46  40  81 S2        30.07R
WINFIELD       PTCLDY    42  40  92 CALM      30.17F
$$

KSZ007>012-019>026-033>040-048>060-102>105-031100-
NORTHEAST KANSAS

CITY           SKY/WX    TMP DP  RH WIND       PRES   REMARKS
CONCORDIA      PTCLDY    40  37  89 E3        30.05S
EMPORIA        CLEAR     44  42  93 CALM      30.07R
LAWRENCE       CLEAR     38  37  97 NW3       30.07F
MANHATTAN      CLEAR     41  38  89 CALM      30.07S FOG
OLATHE IND     CLEAR     44  42  93 W3        30.08R
OLATHE EXE     CLEAR     46  42  86 NW5       30.07R
SALINA         CLEAR     42  39  89 SE7       30.05S
TOPEKA BILLARD PTCLDY    41  40  96 CALM      30.07S
TOPEKA FORBES  CLEAR     41  39  93 CALM      30.07R
$$




USA.gov is the U.S. government's official web portal to all federal, state and local government web resources and services.